Waarnemingen

Advertentie
Mijn weer
Brüssel, België (6451): temperatuur & dauwpunt: 19.09.2020 19:00:00 - 25.09.2020 19:00:00 (CEST)Brüssel, België (6451): windsnelheid & windstoten: 19.09.2020 19:00:00 - 25.09.2020 19:00:00 (CEST)Brüssel, België (6451): windrichting: 19.09.2020 19:00:00 - 25.09.2020 19:00:00 (CEST)Brüssel, België (6451): luchtdruk: 19.09.2020 19:00:00 - 25.09.2020 19:00:00 (CEST)Brüssel, België (6451): zicht: 19.09.2020 19:00:00 - 25.09.2020 19:00:00 (CEST)
Datum & Tijd tt [°C] td [°C] ff [km/u] ff [kn] fx [km/u] fx [kn] dd ppp [hPa] vv [km]
25.09.2020 19:00:00 10,1 8,0 28 15 50 27 W 998,4 9
25.09.2020 18:00:00 10,3 8,5 26 14 43 23 W 998,3 10
25.09.2020 17:00:00 10,6 8,5 26 14 - - W 998,2 9
25.09.2020 16:00:00 11,6 8,3 26 14 40 21 W 997,6 10
25.09.2020 15:00:00 11,7 8,8 22 12 50 27 W 997,0 10
25.09.2020 14:00:00 12,6 7,9 18 10 - - WZW 996,7 10
25.09.2020 13:00:00 12,5 7,7 16 9 25 14 ZW 996,7 10
25.09.2020 12:00:00 11,1 7,7 11 6 25 14 ZW 996,9 10
25.09.2020 11:00:00 9,8 8,4 16 9 - - ZW 996,3 10
25.09.2020 10:00:00 10,2 7,3 13 7 25 14 ZZW 995,7 10
25.09.2020 09:00:00 9,4 6,7 11 6 22 12 Z 995,8 10
25.09.2020 08:00:00 8,8 6,5 13 7 - - Z 996,1 10
25.09.2020 07:00:00 8,5 6,1 18 10 29 16 Z 995,8 10
25.09.2020 06:00:00 8,2 6,1 21 11 29 16 Z 996,1 10
25.09.2020 05:00:00 8,2 6,3 15 8 - - ZZW 996,1 10
25.09.2020 04:00:00 9,0 6,9 18 10 32 18 ZW 996,5 10
25.09.2020 03:00:00 10,0 8,0 16 9 - - ZW - 10
25.09.2020 02:00:00 11,0 8,8 16 9 - - ZZW 996,5 10
25.09.2020 01:00:00 11,7 9,4 18 10 29 16 ZZW 996,2 10
25.09.2020 00:00:00 12,7 10,9 18 10 29 16 ZZW 996,2 10
24.09.2020 23:00:00 12,2 10,8 5 3 - - ZZW 996,3 10
24.09.2020 22:00:00 12,1 10,6 8 4 43 23 ZZW 996,9 5
24.09.2020 21:00:00 13,0 12,0 9 5 - - ZZO - 10
24.09.2020 20:00:00 13,0 12,0 9 5 - - Z - 10
24.09.2020 19:00:00 14,1 10,9 15 8 32 18 Z 999,0 10
24.09.2020 18:00:00 14,3 10,6 24 13 47 25 Z 999,5 10
24.09.2020 17:00:00 16,6 7,8 24 13 - - ZZW 1000,8 10
24.09.2020 16:00:00 17,1 7,8 24 13 40 21 ZZW 1001,3 10
24.09.2020 15:00:00 16,9 7,7 22 12 47 25 Z 1002,0 10
24.09.2020 14:00:00 17,4 8,5 28 15 - - ZZW 1002,4 10
24.09.2020 13:00:00 16,3 7,6 28 15 47 25 ZZW 1002,9 10
24.09.2020 12:00:00 15,4 7,5 28 15 40 21 ZZW 1003,5 10
24.09.2020 11:00:00 14,1 7,7 24 13 - - ZZW 1003,8 10
24.09.2020 10:00:00 12,5 8,6 22 12 36 19 ZZW 1004,1 10
24.09.2020 09:00:00 11,5 8,8 21 11 32 18 ZZW 1004,3 10
24.09.2020 08:00:00 11,5 9,3 18 10 - - ZZW 1003,7 10
24.09.2020 07:00:00 11,4 9,2 18 10 29 16 ZW 1003,8 10
24.09.2020 06:00:00 11,6 9,2 18 10 36 19 ZW 1003,5 10
24.09.2020 05:00:00 12,3 9,8 18 10 - - ZW 1003,0 10
24.09.2020 04:00:00 12,5 10,1 18 10 32 18 ZW 1002,4 10
24.09.2020 03:00:00 13,1 10,3 18 10 40 21 WZW 1001,5 10
24.09.2020 02:00:00 13,9 10,7 26 14 - - WZW 1000,9 10
24.09.2020 01:00:00 16,0 14,7 15 8 29 16 ZZW 999,9 10
24.09.2020 00:00:00 15,9 14,5 18 10 36 19 ZZW 999,9 10
23.09.2020 23:00:00 16,5 14,1 18 10 - - ZZW 1000,7 6
23.09.2020 22:00:00 17,2 14,2 15 8 29 16 Z 1000,5 10
23.09.2020 21:00:00 18,7 13,1 15 8 40 21 Z 1001,2 10
23.09.2020 20:00:00 19,5 12,5 21 11 - - ZZW 1001,8 10
23.09.2020 19:00:00 20,7 11,4 16 9 29 16 ZZW 1002,0 10
23.09.2020 18:00:00 21,0 11,1 15 8 40 21 ZZW 1002,7 10
23.09.2020 17:00:00 21,3 10,6 22 12 - - ZW 1003,4 10
23.09.2020 16:00:00 21,4 10,9 22 12 47 25 ZW 1003,9 10
23.09.2020 15:00:00 21,6 11,3 26 14 43 23 ZW 1004,2 10
23.09.2020 14:00:00 21,8 12,3 21 11 - - ZW 1004,7 10
23.09.2020 13:00:00 21,3 12,0 26 14 40 21 ZW 1005,0 10
23.09.2020 12:00:00 21,0 12,1 24 13 40 21 ZZW 1005,3 10
23.09.2020 11:00:00 19,4 13,2 18 10 - - ZZW 1005,6 10
23.09.2020 10:00:00 16,6 12,5 16 9 25 14 Z 1005,8 10
23.09.2020 09:00:00 14,9 11,7 15 8 18 10 Z 1005,8 10
23.09.2020 08:00:00 14,1 11,6 11 6 - - Z 1006,0 10
23.09.2020 07:00:00 13,6 10,1 9 5 11 6 Z 1006,2 10
23.09.2020 06:00:00 13,4 9,2 9 5 14 8 Z 1006,4 10
23.09.2020 05:00:00 13,0 9,3 9 5 - - Z 1006,6 10
23.09.2020 04:00:00 12,5 9,1 9 5 11 6 ZZW 1007,0 10
23.09.2020 03:00:00 12,9 8,9 7 4 11 6 Z 1007,2 20
23.09.2020 02:00:00 14,6 9,1 8 4 - - ZW 1007,3 10
23.09.2020 01:00:00 14,8 8,7 11 6 14 8 ZZW 1007,4 10
23.09.2020 00:00:00 14,5 8,6 11 6 14 8 ZZW 1007,5 10
22.09.2020 23:00:00 14,7 8,9 9 5 - - Z 1007,8 10
22.09.2020 22:00:00 14,6 8,8 8 4 7 4 ZZW 1008,0 10
22.09.2020 21:00:00 16,1 9,2 5 3 7 4 ZW 1007,9 10
22.09.2020 20:00:00 18,8 8,8 5 3 - - WNW 1008,0 10
22.09.2020 19:00:00 21,8 9,2 8 4 11 6 WNW 1008,1 10
22.09.2020 18:00:00 23,5 8,0 5 3 25 14 W 1008,4 10
22.09.2020 17:00:00 24,1 8,2 5 3 - - - 1009,2 10
22.09.2020 16:00:00 23,7 8,6 5 3 18 10 - 1009,9 10
22.09.2020 15:00:00 23,3 10,4 5 3 18 10 NW 1010,5 10
22.09.2020 14:00:00 22,0 11,4 5 3 - - N 1011,1 10
22.09.2020 13:00:00 21,2 11,2 5 3 11 6 - 1011,6 10
22.09.2020 12:00:00 20,1 10,8 0 0 4 2 N 1012,1 8
22.09.2020 11:00:00 17,3 11,8 2 1 - - - 1012,8 7
22.09.2020 10:00:00 12,7 11,1 2 1 4 2 - 1012,7 3,5
22.09.2020 09:00:00 9,8 9,0 4 2 4 2 ZZW 1012,7 0,1
22.09.2020 08:00:00 9,4 8,6 4 2 - - W 1012,7 3,0
22.09.2020 07:00:00 9,5 8,7 5 3 7 4 ZZW 1012,7 3,0
22.09.2020 06:00:00 9,7 9,0 4 2 4 2 WZW 1012,9 1,5
22.09.2020 05:00:00 9,9 9,2 4 2 - - W 1013,2 1,5
22.09.2020 04:00:00 12,0 11,1 4 2 11 6 WNW 1013,7 3,0
22.09.2020 03:00:00 12,1 10,6 8 4 11 6 WNW 1013,9 6
22.09.2020 02:00:00 12,9 11,0 5 3 - - W 1014,3 10
22.09.2020 01:00:00 12,8 10,6 5 3 7 4 WNW 1014,7 10
22.09.2020 00:00:00 14,5 11,2 8 4 7 4 WNW 1014,8 10
21.09.2020 23:00:00 15,1 11,0 4 2 - - WNW 1014,9 10
21.09.2020 22:00:00 16,2 9,8 5 3 7 4 WNW 1014,8 10
21.09.2020 21:00:00 16,3 9,5 4 2 11 6 NW 1014,9 10
21.09.2020 20:00:00 19,4 8,0 4 2 - - WNW 1014,7 10
21.09.2020 19:00:00 22,3 9,2 5 3 11 6 NNO 1014,8 10
21.09.2020 18:00:00 23,5 7,7 5 3 11 6 N 1015,0 10
21.09.2020 17:00:00 24,0 8,2 5 3 - - N 1015,3 10
21.09.2020 16:00:00 23,3 7,7 4 2 11 6 - 1015,6 10
21.09.2020 15:00:00 23,1 7,9 4 2 14 8 - 1016,0 10
21.09.2020 14:00:00 20,9 8,1 5 3 - - NNO 1016,6 10
21.09.2020 13:00:00 18,9 8,5 5 3 11 6 - 1016,9 10
21.09.2020 12:00:00 17,3 8,9 4 2 7 4 - 1017,2 10
21.09.2020 11:00:00 14,3 7,9 2 1 - - - 1017,2 10
21.09.2020 10:00:00 12,1 8,6 4 2 7 4 - 1017,2 10
21.09.2020 09:00:00 9,7 7,6 2 1 7 4 - 1017,3 10
21.09.2020 08:00:00 8,0 6,8 2 1 - - N 1017,0 10
21.09.2020 07:00:00 8,1 6,2 2 1 7 4 NW 1016,7 10
21.09.2020 06:00:00 7,5 5,8 0 0 4 2 N 1016,8 10
21.09.2020 05:00:00 8,7 6,2 4 2 - - NNW 1017,0 10
21.09.2020 04:00:00 9,1 6,0 4 2 7 4 NNW 1017,2 10
21.09.2020 03:00:00 9,9 6,0 4 2 7 4 NW 1017,2 10
21.09.2020 02:00:00 10,1 6,5 0 0 - - N 1017,2 10
21.09.2020 01:00:00 12,9 6,9 2 1 7 4 - 1017,4 10
21.09.2020 00:00:00 14,0 6,4 4 2 11 6 - 1017,6 10
20.09.2020 23:00:00 14,0 7,2 4 2 - - NNO 1017,8 10
20.09.2020 22:00:00 15,4 7,1 8 4 18 10 NO 1017,6 10
20.09.2020 21:00:00 17,6 6,3 4 2 7 4 - 1017,2 10
20.09.2020 20:00:00 19,2 7,0 5 3 - - NO 1016,8 10
20.09.2020 19:00:00 22,6 5,0 9 5 18 10 ONO 1016,4 10
20.09.2020 18:00:00 23,8 4,5 13 7 18 10 ONO 1016,2 10
20.09.2020 17:00:00 24,5 5,3 11 6 - - NO 1016,2 10
20.09.2020 16:00:00 24,5 4,8 9 5 18 10 NO 1016,2 10
20.09.2020 15:00:00 23,4 6,1 9 5 14 8 NO 1016,7 10
20.09.2020 14:00:00 21,8 7,2 9 5 - - NO 1017,2 10
20.09.2020 13:00:00 19,9 7,3 11 6 18 10 NO 1017,4 10
20.09.2020 12:00:00 16,6 7,7 8 4 11 6 NO 1017,5 10
20.09.2020 11:00:00 14,8 7,5 5 3 - - ONO 1017,4 10
20.09.2020 10:00:00 13,8 7,8 9 5 11 6 NO 1017,2 10
20.09.2020 09:00:00 12,9 8,4 4 2 7 4 ONO 1016,6 10
20.09.2020 08:00:00 12,4 8,4 4 2 - - ONO 1016,3 10
20.09.2020 07:00:00 11,8 8,2 2 1 11 6 NO 1016,1 10
20.09.2020 06:00:00 12,3 8,6 8 4 11 6 NO 1016,1 10
20.09.2020 05:00:00 13,4 7,8 4 2 - - ONO 1016,0 10
20.09.2020 04:00:00 13,8 9,0 5 3 7 4 NO 1016,0 10
20.09.2020 03:00:00 14,5 9,4 4 2 7 4 NO 1016,0 10
20.09.2020 02:00:00 16,0 9,2 4 2 - - ONO 1016,0 10
20.09.2020 01:00:00 16,5 9,8 4 2 7 4 O 1016,1 10
20.09.2020 00:00:00 17,2 10,9 5 3 7 4 ONO 1016,2 10
19.09.2020 23:00:00 18,5 10,8 5 3 - - ONO 1016,1 10
19.09.2020 22:00:00 19,1 12,2 4 2 7 4 NO 1015,8 10
19.09.2020 21:00:00 20,8 12,1 5 3 7 4 ONO 1015,5 10
19.09.2020 20:00:00 21,6 12,7 5 3 - - ONO 1015,2 10
19.09.2020 19:00:00 24,1 13,1 9 5 22 12 NO 1014,9 10

tt = temperatuur
td = dauwpunt
ff = windsnelheid
fx = windstoten
dd = windrichting
ppp = luchtdruk
vv = zicht

Weerstations in de omgeving